Date String (YYYY-MM-DD hh:mm:ss) UTC,Instrument flags,Ambient pressure (hPa),Sample flow (lpm),Bypass flow (lpm),Sample temperature (°C),Ambient temperature (°C),ASC tube jacket temperature (°C),LED temperature (°C),Box temperature (°C),Sample RH (%),Span deviation,Mass concentration (μg/m³),Mass concentration (μg/m³),Mass concentration (μg/m³)
DateTimeUTC,F1_M11,P_M11,Q1_M11,Q2_M11,T1_M11,T2_M11,T3_M11,T4_M11,T5_M11,U1_M11,ZSPAN_M11,X0_M11,X2_M11,X1_M11
2022-08-15 09:00:00,,0828.5,5.00,0.00,31.6,28.3,00.0,39.7,32.1,34.0,0000.0,0009.12,0004.79,0004.24
2022-08-15 09:01:00,,0828.4,4.99,0.00,31.6,28.4,00.0,39.7,32.1,33.9,0000.0,0008.76,0004.78,0004.24
2022-08-15 09:02:00,,0828.3,5.00,0.00,31.5,28.5,00.0,39.8,32.1,34.0,0000.0,0008.74,0004.80,0004.24
2022-08-15 09:03:00,,0828.3,5.01,0.00,31.5,28.6,00.0,39.8,32.1,34.1,0000.0,0008.59,0004.82,0004.25
2022-08-15 09:04:00,,0828.3,4.99,0.00,31.5,28.7,00.0,39.8,32.1,34.1,0000.0,0008.32,0004.83,0004.25
2022-08-15 09:05:00,,0828.3,5.01,0.00,31.4,28.8,00.0,39.8,32.2,34.3,0000.0,0008.34,0004.83,0004.25
2022-08-15 09:06:00,,0828.3,4.99,0.00,31.4,28.9,00.0,39.8,32.2,34.5,0000.0,0008.29,0004.82,0004.24
2022-08-15 09:07:00,,0828.4,5.01,0.00,31.4,28.9,00.0,39.8,32.2,34.5,0000.0,0008.30,0004.82,0004.25
2022-08-15 09:08:00,,0828.4,5.00,0.00,31.3,29.0,00.0,39.8,32.2,34.6,0000.0,0008.13,0004.80,0004.26
2022-08-15 09:09:00,,0828.4,5.00,0.00,31.3,28.8,00.0,39.8,32.1,34.7,0000.0,0008.08,0004.79,0004.26
2022-08-15 09:10:00,,0828.4,4.99,0.00,31.2,28.2,00.0,39.7,32.0,34.8,0000.0,0008.01,0004.78,0004.25
2022-08-15 09:11:00,,0828.3,5.01,0.00,31.2,27.9,00.0,39.7,31.9,35.0,0000.0,0007.99,0004.79,0004.26
2022-08-15 09:12:00,,0828.3,5.00,0.00,31.1,27.8,00.0,39.6,31.9,35.3,0000.0,0007.98,0004.79,0004.26
2022-08-15 09:13:00,,0828.3,5.00,0.00,31.3,27.9,00.0,39.6,32.1,34.9,0000.0,0007.95,0004.76,0004.24
2022-08-15 09:14:00,,0828.4,5.00,0.00,31.5,28.0,00.0,39.6,32.1,34.6,0000.0,0007.94,0004.72,0004.22
2022-08-15 09:15:00,,0828.3,5.00,0.00,31.5,28.1,00.0,39.6,32.1,34.6,0000.0,0007.90,0004.69,0004.22
2022-08-15 09:16:00,,0828.4,5.00,0.00,31.5,28.2,00.0,39.6,32.1,34.5,0000.0,0007.85,0004.67,0004.21
2022-08-15 09:17:00,,0828.4,5.00,0.00,31.5,28.4,00.0,39.6,32.1,34.4,0000.0,0007.78,0004.63,0004.20
2022-08-15 09:18:00,,0828.4,5.00,0.00,31.5,28.5,00.0,39.6,32.1,34.4,0000.0,0007.72,0004.62,0004.20
2022-08-15 09:19:00,,0828.4,4.99,0.00,31.5,28.6,00.0,39.7,32.1,34.5,0000.0,0007.92,0004.63,0004.20
2022-08-15 09:20:00,,0828.4,5.01,0.00,31.5,28.7,00.0,39.7,32.2,34.5,0000.0,0008.02,0004.66,0004.20
2022-08-15 09:21:00,,0828.4,4.99,0.00,31.4,28.8,00.0,39.7,32.2,34.5,0000.0,0008.02,0004.67,0004.21
2022-08-15 09:22:00,,0828.3,4.99,0.00,31.4,28.8,00.0,39.7,32.2,34.6,0000.0,0008.05,0004.68,0004.22
2022-08-15 09:23:00,,0828.4,5.01,0.00,31.4,28.9,00.0,39.7,32.2,34.7,0000.0,0008.02,0004.67,0004.23
2022-08-15 09:24:00,,0828.4,4.99,0.00,31.3,29.0,00.0,39.8,32.2,34.7,0000.0,0007.95,0004.69,0004.25
2022-08-15 09:25:00,,0828.3,5.00,0.00,31.3,29.0,00.0,39.8,32.2,34.7,0000.0,0007.81,0004.70,0004.28
2022-08-15 09:26:00,,0828.4,4.99,0.00,31.3,29.0,00.0,39.8,32.3,34.8,0000.0,0007.85,0004.73,0004.29
2022-08-15 09:27:00,,0828.4,5.01,0.00,31.3,28.5,00.0,39.7,32.1,34.9,0000.0,0007.88,0004.76,0004.31
2022-08-15 09:28:00,,0828.3,5.00,0.00,31.2,27.7,00.0,39.7,31.9,35.2,0000.0,0007.99,0004.82,0004.34
2022-08-15 09:29:00,,0828.3,5.01,0.00,31.3,27.4,00.0,39.6,31.9,35.2,0000.0,0008.12,0004.86,0004.35
2022-08-15 09:30:00,,0828.4,4.99,0.00,31.4,27.3,00.0,39.6,31.9,34.7,0000.0,0007.93,0004.87,0004.36
2022-08-15 09:31:00,,0828.3,5.00,0.00,31.4,27.4,00.0,39.5,31.9,34.5,0000.0,0007.99,0004.89,0004.36
2022-08-15 09:32:00,,0828.3,5.01,0.00,31.4,27.5,00.0,39.5,31.9,34.5,0000.0,0008.03,0004.91,0004.36
2022-08-15 09:33:00,,0828.3,5.00,0.00,31.4,27.7,00.0,39.5,31.9,34.5,0000.0,0008.72,0004.92,0004.36
2022-08-15 09:34:00,,0828.2,5.00,0.00,31.4,27.9,00.0,39.5,31.9,34.6,0000.0,0009.00,0004.94,0004.35
2022-08-15 09:35:00,,0828.4,5.01,0.00,31.3,28.0,00.0,39.5,31.9,34.6,0000.0,0009.04,0004.94,0004.34
2022-08-15 09:36:00,,0828.3,4.99,0.00,31.3,28.2,00.0,39.6,31.9,34.7,0000.0,0009.04,0004.94,0004.34
2022-08-15 09:37:00,,0828.2,5.01,0.00,31.2,28.3,00.0,39.6,32.0,34.8,0000.0,0009.07,0004.94,0004.33
2022-08-15 09:38:00,,0828.2,4.99,0.00,31.2,28.4,00.0,39.6,32.0,34.9,0000.0,0009.03,0004.93,0004.33
2022-08-15 09:39:00,,0828.2,4.99,0.00,31.2,28.5,00.0,39.6,32.0,34.9,0000.0,0008.93,0004.90,0004.33
2022-08-15 09:40:00,,0828.2,5.01,0.00,31.1,28.6,00.0,39.6,32.0,35.0,0000.0,0008.89,0004.90,0004.33
2022-08-15 09:41:00,,0828.2,5.00,0.00,31.1,28.7,00.0,39.6,32.1,35.0,0000.0,0008.98,0004.93,0004.34
2022-08-15 09:42:00,,0828.2,5.01,0.00,31.3,28.8,00.0,39.6,32.2,34.8,0000.0,0008.92,0004.91,0004.35
2022-08-15 09:43:00,,0828.2,4.99,0.00,31.4,28.8,00.0,39.6,32.2,34.5,0000.0,0008.95,0004.91,0004.36
2022-08-15 09:44:00,,0828.2,4.99,0.00,31.4,28.9,00.0,39.6,32.2,34.5,0000.0,0008.24,0004.88,0004.36
2022-08-15 09:45:00,,0828.2,4.99,0.00,31.4,29.0,00.0,39.6,32.2,34.4,0000.0,0008.06,0004.86,0004.36
2022-08-15 09:46:00,,0828.3,5.01,0.00,31.4,29.0,00.0,39.7,32.2,34.5,0000.0,0008.13,0004.90,0004.37
2022-08-15 09:47:00,,0828.3,4.99,0.00,31.4,29.0,00.0,39.7,32.2,34.5,0000.0,0008.18,0004.92,0004.37
2022-08-15 09:48:00,,0828.3,5.01,0.00,31.4,28.3,00.0,39.6,32.0,34.5,0000.0,0008.12,0004.91,0004.39
2022-08-15 09:49:00,,0828.3,4.99,0.00,31.3,27.9,00.0,39.6,32.0,34.7,0000.0,0008.09,0004.91,0004.40
2022-08-15 09:50:00,,0828.4,5.01,0.00,31.2,27.8,00.0,39.6,31.9,35.3,0000.0,0008.16,0004.94,0004.40
2022-08-15 09:51:00,,0828.2,4.99,0.00,31.2,27.8,00.0,39.6,32.0,35.3,0000.0,0008.17,0004.92,0004.40
2022-08-15 09:52:00,,0828.3,5.01,0.00,31.5,27.9,00.0,39.6,32.1,34.6,0000.0,0008.20,0004.92,0004.38
2022-08-15 09:53:00,,0828.3,4.99,0.00,31.6,28.0,00.0,39.6,32.1,34.3,0000.0,0008.35,0004.93,0004.36
2022-08-15 09:54:00,,0828.3,5.01,0.00,31.6,28.1,00.0,39.6,32.1,34.2,0000.0,0008.44,0004.92,0004.36
2022-08-15 09:55:00,,0828.3,4.99,0.00,31.6,28.3,00.0,39.6,32.1,34.2,0000.0,0008.40,0004.93,0004.36
2022-08-15 09:56:00,,0828.2,5.01,0.00,31.6,28.4,00.0,39.6,32.1,34.3,0000.0,0008.23,0004.90,0004.35
2022-08-15 09:57:00,,0828.3,5.00,0.00,31.6,28.5,00.0,39.7,32.1,34.4,0000.0,0008.16,0004.86,0004.34
2022-08-15 09:58:00,,0828.3,5.00,0.00,31.5,28.6,00.0,39.7,32.1,34.4,0000.0,0008.11,0004.84,0004.33
2022-08-15 09:59:00,,0828.3,5.00,0.00,31.5,28.7,00.0,39.7,32.2,34.6,0000.0,0008.15,0004.81,0004.31
